[[{"header":{"parameterUnit":"m.s-1","parameterCategory":1,"la1":30.2991,"la2":30.254,"lo1":-89.0895,"lo2":-89.0444,"dy":0.0017,"dx":0.0017,"nx":28,"ny":28,"refTime":"2025-03-21T09:00:00:Z","depth":0,"parameterNumber":2,"parameterNumberName":"U-component_of_WINDS"},"data":[0,0,0,0,0,0,0,0,0,0,0,0,0,0,0,0,0,0,0,0,0,0,0,0,0,0,0,0,0,0,0,0,0,0,0,0,0,0,0,0,0,0,0,0,0,0,0,0,0,0,0,0,0,0,0,0,0,0,-0.3679,-0.3679,0,-0.3675,-0.3675,-0.3675,-0.36,-0.3598,-0.3596,-0.3594,-0.3595,-0.3597,-0.3599,0,0,0,0,0,0,0,0,0,0,0,0,0,-0.3624,-0.3625,-0.3679,-0.3679,-0.3679,-0.3675,-0.3675,-0.3675,-0.36,-0.3598,-0.3596,-0.3593,-0.3594,-0.3597,-0.3599,0,0,0,0,0,0,0,0,0,0,0,0,0,-0.3637,-0.3626,-0.3679,-0.3641,-0.3637,-0.3675,-0.3675,-0.3675,-0.3601,-0.3598,-0.3595,-0.3592,-0.3594,-0.3596,-0.3599,-0.3674,0,0,-0.3607,-0.3609,0,0,0,0,0,0,0,0,-0.3636,-0.3639,-0.3647,-0.3644,-0.364,-0.3635,-0.3656,-0.3675,-0.3602,-0.3615,-0.3594,-0.3591,-0.3611,-0.3612,-0.3618,-0.3674,-0.3674,-0.3608,-0.3609,-0.3611,-0.3611,0,0,0,0,0,0,0,-0.3635,-0.3639,-0.3677,-0.3647,-0.3643,-0.3625,-0.3624,-0.3659,-0.363,-0.3614,-0.3608,-0.3608,-0.3609,-0.3616,-0.3617,-0.3674,-0.3608,-0.361,-0.3612,-0.3613,-0.3791,-0.3794,0,0,0,0,0,0,-0.3639,-0.3639,-0.3678,-0.3677,-0.3631,-0.3628,-0.3627,-0.364,-0.3629,-0.3624,-0.3611,-0.3605,-0.3612,-0.3614,-0.3617,-0.3704,-0.3611,-0.3613,-0.3615,-0.3788,-0.3792,-0.3795,0,0,0,0,0,0,-0.3638,-0.3643,-0.3678,-0.3656,-0.3659,-0.3632,-0.3647,-0.3641,-0.3648,-0.3627,-0.3621,-0.3623,-0.361,-0.3613,-0.366,-0.3703,-0.3614,-0.3617,-0.3784,-0.3789,-0.3793,-0.3879,0,0,0,0,0,0,-0.3637,-0.3644,-0.3672,-0.3658,-0.3661,-0.372,-0.365,-0.3643,-0.3652,-0.3644,-0.3637,-0.3633,-0.3608,-0.3656,-0.3663,-0.3705,-0.3619,-0.378,-0.3786,-0.3792,-0.3872,-0.3886,-0.3898,0,0,0,0,0,-0.3635,-0.3697,-0.3673,-0.3678,-0.3695,-0.3723,-0.3725,-0.3694,-0.3656,-0.3684,-0.367,-0.3633,-0.3697,-0.3662,-0.3668,-0.3713,-0.3777,-0.3785,-0.3791,-0.3867,-0.3884,-0.3898,0,0,0,0,0,0,-0.3719,-0.3695,-0.3668,-0.3727,-0.3727,-0.371,-0.3745,-0.3713,-0.3725,-0.3717,-0.3679,-0.3678,-0.3731,-0.3726,-0.3687,-0.3784,-0.3731,-0.3739,-0.3786,-0.3801,-0.3814,-0.3815,-0.3621,0,0,0,0,0,-0.3744,-0.3768,-0.3745,-0.3799,-0.3801,-0.3773,-0.3784,-0.3759,-0.3759,-0.3759,-0.3749,-0.3751,-0.3771,-0.3786,-0.3803,-0.387,-0.3868,-0.3904,-0.3917,-0.3927,-0.3936,-0.3971,-0.3986,-0.3818,-0.3818,-0.3817,0,0,-0.3797,-0.3786,-0.3804,-0.3816,-0.3813,-0.384,-0.3774,-0.3805,-0.3824,-0.3764,-0.3808,-0.38,-0.38,-0.3857,-0.3881,-0.3854,-0.3981,-0.3936,-0.3945,-0.3947,-0.3979,-0.3995,-0.401,-0.3822,-0.3821,-0.3821,0,0,-0.3906,-0.39,-0.3944,-0.3942,-0.3938,-0.3919,-0.3929,-0.3916,-0.3909,-0.3951,-0.3906,-0.3929,-0.3965,-0.3966,-0.3972,-0.4078,-0.4045,-0.4085,-0.4153,-0.4187,-0.4201,-0.4212,-0.4251,-0.4265,-0.4093,-0.4093,-0.4094,0,-0.3973,-0.4009,-0.3972,-0.4005,-0.4011,-0.3956,-0.4,-0.4001,-0.4004,-0.401,-0.3979,-0.4021,-0.4017,-0.4074,-0.41,-0.4106,-0.4117,-0.4087,-0.4201,-0.4213,-0.4223,-0.426,-0.4274,-0.4098,-0.4098,-0.4097,-0.4097,0,-0.4092,-0.4118,-0.4154,-0.4155,-0.4166,-0.4205,-0.4173,-0.4189,-0.4162,-0.4146,-0.419,-0.4182,-0.4197,-0.4208,-0.4184,-0.4261,-0.4244,-0.4208,-0.4154,-0.4245,-0.4279,-0.4292,-0.4106,-0.4104,-0.4102,-0.4101,0,0,-0.4257,-0.4235,-0.4249,-0.4249,-0.4239,-0.4259,-0.4294,-0.4307,-0.4321,-0.4324,-0.4354,-0.4384,-0.4349,-0.4356,-0.4331,-0.4361,-0.4446,-0.432,-0.432,-0.4345,-0.4531,-0.456,-0.4577,-0.4423,-0.4425,-0.4427,-0.4532,0,-0.4364,-0.4423,-0.4388,-0.4453,-0.4477,-0.4423,-0.4454,-0.4452,-0.4437,-0.4456,-0.4439,-0.4462,-0.4414,-0.4418,-0.4445,-0.443,-0.4483,-0.4422,-0.4452,-0.4453,-0.4455,-0.4594,-0.4625,-0.4724,-0.4544,-0.4547,-0.4548,0,-0.4497,-0.4503,-0.4569,-0.4553,-0.4562,-0.4591,-0.4598,-0.4616,-0.4612,-0.4599,-0.4605,-0.4572,-0.4607,-0.4551,-0.4599,-0.4558,-0.4568,-0.4562,-0.4565,-0.4568,-0.4508,-0.4603,-0.4755,-0.4771,-0.4569,-0.4567,-0.4566,0,-0.4612,-0.4637,-0.4679,-0.4681,-0.4663,-0.4684,-0.4678,-0.4671,-0.468,-0.4687,-0.4693,-0.4704,-0.4711,-0.4721,-0.4692,-0.4655,-0.4744,-0.4687,-0.4736,-0.4737,-0.4759,-0.4759,-0.4917,-0.4763,-0.4763,-0.4762,-0.4762,0,-0.4735,-0.4779,-0.4731,-0.4758,-0.4804,-0.4763,-0.4811,-0.4799,-0.4793,-0.4817,-0.4771,-0.4795,-0.4754,-0.4774,-0.4751,-0.4794,-0.4798,-0.4789,-0.4783,-0.4794,-0.4796,-0.4802,-0.4795,-0.4766,-0.4765,-0.4765,-0.4764,0,-0.4873,-0.4843,-0.4886,-0.4864,-0.486,-0.4895,-0.4877,-0.4901,-0.4882,-0.4913,-0.4917,-0.4888,-0.4909,-0.488,-0.4898,-0.4883,-0.4943,-0.4925,-0.4944,-0.4939,-0.4991,-0.4987,-0.516,-0.5181,-0.5012,-0.5014,-0.5015,0,-0.4955,-0.4987,-0.4967,-0.4979,-0.4975,-0.4994,-0.5003,-0.4963,-0.4974,-0.4971,-0.4996,-0.5011,-0.5023,-0.5058,-0.504,-0.5053,-0.5037,-0.5096,-0.5039,-0.5049,-0.5039,-0.5038,-0.5041,-0.5109,-0.5111,-0.5113,-0.5114,0,-0.5104,-0.5087,-0.5099,-0.5107,-0.5117,-0.5121,-0.5122,-0.5135,-0.5094,-0.5108,-0.5127,-0.5136,-0.5153,-0.517,-0.5178,-0.5172,-0.5137,-0.5131,-0.5144,-0.5157,-0.5167,-0.5163,-0.4978,-0.5129,-0.5127,-0.5126,-0.5125,-0.5125,-0.5217,-0.5242,-0.5232,-0.5248,-0.5243,-0.5245,-0.5266,-0.5248,-0.5263,-0.5273,-0.5248,-0.5274,-0.5268,-0.5274,-0.5272,-0.5292,-0.5267,-0.5284,-0.5289,-0.5295,-0.5303,-0.5162,-0.5293,-0.5293,-0.5293,-0.5292,-0.5292,0,-0.5365,-0.5354,-0.5369,-0.537,-0.5382,-0.5344,-0.5343,-0.5356,-0.5379,-0.5375,-0.5386,-0.5408,-0.5423,-0.5404,-0.5417,-0.5436,-0.542,-0.5441,-0.544,-0.544,-0.5325,-0.5313,-0.5454,-0.5454,-0.5454,-0.5454,-0.5453,-0.5453,-0.5443,-0.5483,-0.5464,-0.5502,-0.5491,-0.5514,-0.5517,-0.5518,-0.5515,-0.5541,-0.5552,-0.5539,-0.5529,-0.554,-0.5553,-0.5547,-0.5554,-0.5581,-0.557,-0.5464,-0.5448,-0.5433,-0.5422,-0.5583,-0.5583,-0.5683,-0.5684,-0.5685]},{"header":{"parameterUnit":"m.s-1","parameterCategory":1,"la1":30.2991,"la2":30.254,"lo1":-89.0895,"lo2":-89.0444,"dy":0.0017,"dx":0.0017,"nx":28,"ny":28,"refTime":"2025-03-21T09:00:00:Z","depth":0,"parameterNumber":3,"parameterNumberName":"V-component_of_WINDS"},"data":[0,0,0,0,0,0,0,0,0,0,0,0,0,0,0,0,0,0,0,0,0,0,0,0,0,0,0,0,0,0,0,0,0,0,0,0,0,0,0,0,0,0,0,0,0,0,0,0,0,0,0,0,0,0,0,0,0,0,-3.6469,-3.6471,0,-3.6589,-3.659,-3.6591,-3.6553,-3.655,-3.6548,-3.6545,-3.6664,-3.667,-3.6675,0,0,0,0,0,0,0,0,0,0,0,0,0,-3.6205,-3.621,-3.6469,-3.6471,-3.6472,-3.6588,-3.659,-3.6592,-3.6553,-3.655,-3.6547,-3.6544,-3.6662,-3.6669,-3.6676,0,0,0,0,0,0,0,0,0,0,0,0,0,-3.6322,-3.6212,-3.6469,-3.6467,-3.6468,-3.6588,-3.659,-3.6592,-3.6554,-3.655,-3.6546,-3.6543,-3.666,-3.6668,-3.6676,-3.6804,0,0,-3.6702,-3.6705,0,0,0,0,0,0,0,0,-3.6315,-3.6331,-3.6466,-3.6468,-3.6469,-3.6552,-3.654,-3.6663,-3.6555,-3.6521,-3.6545,-3.6541,-3.663,-3.664,-3.6671,-3.681,-3.6815,-3.6703,-3.6708,-3.6711,-3.6714,0,0,0,0,0,0,0,-3.6307,-3.6326,-3.6516,-3.6468,-3.647,-3.6459,-3.6472,-3.6563,-3.6595,-3.6524,-3.6521,-3.6536,-3.663,-3.6663,-3.6673,-3.6817,-3.6702,-3.671,-3.6715,-3.6718,-3.7065,-3.7069,0,0,0,0,0,0,-3.6299,-3.632,-3.6513,-3.652,-3.6381,-3.6467,-3.6481,-3.6529,-3.6594,-3.6601,-3.6539,-3.6534,-3.6651,-3.6664,-3.6677,-3.6831,-3.6711,-3.6719,-3.6724,-3.7061,-3.7066,-3.7071,0,0,0,0,0,0,-3.6293,-3.6316,-3.6508,-3.6419,-3.6443,-3.6476,-3.653,-3.6533,-3.6567,-3.6606,-3.6611,-3.6568,-3.6648,-3.6666,-3.6773,-3.6834,-3.6723,-3.673,-3.7056,-3.7063,-3.7069,-3.7139,0,0,0,0,0,0,-3.6286,-3.6314,-3.6364,-3.6421,-3.6448,-3.6603,-3.6534,-3.6539,-3.6582,-3.6576,-3.6634,-3.664,-3.6647,-3.6761,-3.6781,-3.6844,-3.6737,-3.7051,-3.7059,-3.7066,-3.7131,-3.7147,-3.716,0,0,0,0,0,-3.6276,-3.6379,-3.6367,-3.639,-3.6511,-3.6606,-3.6621,-3.6628,-3.6587,-3.6636,-3.6661,-3.6638,-3.6825,-3.6772,-3.6795,-3.6861,-3.7047,-3.7057,-3.7066,-3.7125,-3.7144,-3.716,0,0,0,0,0,0,-3.6327,-3.6386,-3.6374,-3.6497,-3.6547,-3.66,-3.6662,-3.6648,-3.671,-3.6702,-3.6706,-3.6719,-3.683,-3.6856,-3.6796,-3.6987,-3.6929,-3.6944,-3.6966,-3.6985,-3.6999,-3.699,-3.6744,0,0,0,0,0,-3.6353,-3.6427,-3.6474,-3.6578,-3.6604,-3.6629,-3.6671,-3.6672,-3.6723,-3.6744,-3.6777,-3.6826,-3.6896,-3.6942,-3.7008,-3.7135,-3.7146,-3.7191,-3.7206,-3.7218,-3.723,-3.7298,-3.7318,-3.7102,-3.7102,-3.7102,0,0,-3.6407,-3.6448,-3.6494,-3.659,-3.6629,-3.6704,-3.6647,-3.6729,-3.6785,-3.6756,-3.6859,-3.6885,-3.6941,-3.7058,-3.7112,-3.7084,-3.7292,-3.723,-3.7239,-3.7245,-3.731,-3.733,-3.7349,-3.7109,-3.7107,-3.7106,0,0,-3.6544,-3.6583,-3.6674,-3.6714,-3.6774,-3.679,-3.6811,-3.6866,-3.6883,-3.6987,-3.6967,-3.7032,-3.7152,-3.7193,-3.7229,-3.7381,-3.7361,-3.7402,-3.7478,-3.7544,-3.7561,-3.7576,-3.763,-3.7649,-3.7414,-3.7415,-3.7415,0,-3.6603,-3.6717,-3.6722,-3.6807,-3.6849,-3.6827,-3.6919,-3.6957,-3.7035,-3.7064,-3.7032,-3.7182,-3.7218,-3.7344,-3.7381,-3.7412,-3.7436,-3.7395,-3.7559,-3.7574,-3.7588,-3.7639,-3.7659,-3.7419,-3.7419,-3.7418,-3.7418,0,-3.6786,-3.6865,-3.6931,-3.7008,-3.7058,-3.7145,-3.7163,-3.7213,-3.7209,-3.7228,-3.7334,-3.7376,-3.7451,-3.7481,-3.7477,-3.7607,-3.7587,-3.7557,-3.7499,-3.7613,-3.7661,-3.7681,-3.7426,-3.7424,-3.7423,-3.7421,0,0,-3.6958,-3.7037,-3.7061,-3.7096,-3.716,-3.722,-3.7306,-3.738,-3.7422,-3.7476,-3.7548,-3.765,-3.7622,-3.7663,-3.7665,-3.7723,-3.784,-3.7685,-3.7687,-3.7712,-3.7984,-3.8006,-3.8029,-3.7827,-3.7831,-3.7834,-3.7979,0,-3.7099,-3.7252,-3.7259,-3.7397,-3.747,-3.745,-3.7525,-3.7572,-3.7592,-3.7655,-3.7677,-3.7749,-3.7707,-3.7732,-3.7789,-3.7814,-3.7894,-3.7803,-3.7893,-3.7896,-3.788,-3.8054,-3.8078,-3.8212,-3.7998,-3.8001,-3.8003,0,-3.7285,-3.7346,-3.7491,-3.7545,-3.7575,-3.7643,-3.7711,-3.7772,-3.7824,-3.7834,-3.7881,-3.7874,-3.796,-3.79,-3.8019,-3.7957,-3.7994,-3.8012,-3.8017,-3.8025,-3.7957,-3.8066,-3.8255,-3.8275,-3.8033,-3.8031,-3.8029,0,-3.7395,-3.7513,-3.7616,-3.7646,-3.7711,-3.7758,-3.7788,-3.7836,-3.788,-3.7939,-3.7967,-3.8035,-3.8072,-3.8125,-3.8135,-3.809,-3.8255,-3.8195,-3.8265,-3.8265,-3.83,-3.8298,-3.8497,-3.8325,-3.8325,-3.8324,-3.8324,0,-3.7552,-3.7642,-3.7666,-3.7729,-3.7829,-3.7836,-3.7934,-3.796,-3.8003,-3.807,-3.8056,-3.8119,-3.813,-3.8195,-3.8204,-3.8301,-3.8318,-3.8328,-3.8329,-3.8329,-3.8328,-3.8353,-3.8344,-3.833,-3.8328,-3.8327,-3.8326,0,-3.7692,-3.7712,-3.7822,-3.7875,-3.789,-3.7961,-3.8006,-3.8065,-3.8084,-3.8168,-3.8188,-3.8217,-3.8293,-3.8309,-3.8398,-3.8404,-3.8519,-3.8512,-3.8502,-3.8501,-3.857,-3.8564,-3.8793,-3.8823,-3.8631,-3.8633,-3.8635,0,-3.7791,-3.7859,-3.792,-3.7964,-3.7995,-3.8067,-3.8111,-3.8121,-3.8168,-3.8233,-3.8284,-3.8359,-3.8418,-3.854,-3.8568,-3.8636,-3.863,-3.8705,-3.864,-3.8637,-3.863,-3.8626,-3.8633,-3.8718,-3.872,-3.8721,-3.8723,0,-3.7964,-3.797,-3.8036,-3.8105,-3.8159,-3.8213,-3.8265,-3.8302,-3.8319,-3.8372,-3.8449,-3.8496,-3.8588,-3.8661,-3.8729,-3.8758,-3.8743,-3.8743,-3.8763,-3.8764,-3.8755,-3.876,-3.8536,-3.8738,-3.8736,-3.8735,-3.8735,-3.8734,-3.8086,-3.8146,-3.8197,-3.8271,-3.8311,-3.836,-3.8418,-3.8444,-3.851,-3.8586,-3.8587,-3.8672,-3.8721,-3.8812,-3.8845,-3.891,-3.8886,-3.8915,-3.8922,-3.8929,-3.8935,-3.8745,-3.8922,-3.8922,-3.8922,-3.8921,-3.8921,0,-3.8257,-3.829,-3.8357,-3.8431,-3.8488,-3.847,-3.8527,-3.8575,-3.865,-3.8699,-3.8758,-3.8847,-3.8918,-3.8952,-3.9022,-3.9068,-3.9063,-3.9086,-3.9083,-3.909,-3.8953,-3.8928,-3.9089,-3.9089,-3.9089,-3.9089,-3.9089,-3.9089,-3.8354,-3.8454,-3.8467,-3.8586,-3.8618,-3.8701,-3.8735,-3.878,-3.8818,-3.8918,-3.8978,-3.9,-3.9042,-3.9115,-3.9179,-3.9187,-3.9214,-3.924,-3.9245,-3.9116,-3.9099,-3.9083,-3.906,-3.9246,-3.9246,-3.9376,-3.9377,-3.9378]}]]